Wind_Speed
25 23 22 21 20 19 19 18 17 18 19 20 21 22 24 24 24 26 26 25 25 23 22 23 25 24 22 19 18 18 19 16 15 14 15 14 13 13 14 14 14 15 15
30 25 21 20 19 19 19 19 19 20 21 21 22 23 24 25 25 26 27 27 27 27 26 25 26 26 23 20 17 18 19 17 16 15 15 13 12 12 12 14 14 15 15
33 28 23 21 20 19 19 19 20 22 22 23 25 25 24 25 26 27 29 30 30 31 29 27 27 27 24 21 19 18 19 19 18 17 16 15 13 12 12 13 13 14 14
33 31 26 24 21 20 20 20 20 22 23 24 25 25 24 26 29 30 31 33 34 34 32 28 27 27 26 23 23 21 19 19 21 20 18 17 16 14 12 11 11 11 12
33 31 28 26 23 22 21 20 20 21 23 24 25 26 28 31 32 32 32 33 34 33 32 29 27 26 24 24 24 23 21 20 22 23 20 19 18 18 15 12 10 9 9
32 31 28 26 24 22 20 20 21 22 23 25 26 28 30 32 33 32 31 31 31 30 29 27 26 25 23 22 21 22 21 21 21 23 23 21 21 22 19 16 12 10 9
28 28 25 25 23 20 18 20 21 23 25 27 28 28 30 31 31 30 29 29 28 25 25 25 25 24 23 23 22 22 21 22 21 21 25 25 23 24 23 20 17 14 12
23 21 20 19 16 15 18 21 23 24 27 28 27 27 28 28 27 27 27 27 25 22 21 22 21 23 25 26 26 25 25 24 22 23 26 26 25 26 27 24 21 19 17
14 13 13 12 14 18 21 23 24 25 26 26 25 25 26 26 26 25 26 25 22 20 19 18 17 18 20 23 24 25 25 25 24 26 29 30 30 29 29 28 25 23 22
13 14 13 14 18 20 23 24 24 24 24 24 25 25 24 24 23 23 22 22 20 18 18 18 17 16 16 17 18 20 21 22 23 26 30 33 34 35 33 30 28 26 25
17 17 16 17 19 20 22 23 23 23 23 25 24 23 23 24 24 22 19 18 18 17 17 16 17 16 15 16 16 18 19 21 23 24 27 33 36 37 37 34 32 29 28
20 20 21 21 19 20 22 22 22 23 24 25 26 26 26 26 25 21 18 17 17 17 17 17 17 17 17 16 17 17 19 20 21 23 25 30 36 37 38 35 33 32 30
18 18 19 18 19 21 22 22 22 23 25 28 29 29 28 27 24 20 18 17 17 18 18 18 19 19 20 20 19 19 21 21 22 23 23 25 33 38 37 35 33 32 31
17 17 16 16 18 21 22 23 26 28 28 29 29 29 26 23 20 18 17 17 18 19 19 20 21 22 22 22 22 22 22 22 22 22 23 23 28 36 39 36 34 33 32
21 21 20 19 20 22 22 24 27 29 29 26 26 26 23 19 17 18 19 19 18 18 19 20 21 22 23 23 23 23 22 22 22 21 20 18 20 30 37 37 35 32 31
25 25 24 23 23 23 23 25 26 26 25 23 23 24 23 21 20 21 21 22 21 20 21 21 22 23 23 24 25 25 24 23 23 21 19 18 18 20 27 34 35 33 32
24 22 23 23 23 23 23 23 22 21 21 21 21 21 22 22 22 23 23 23 23 24 24 24 25 25 24 24 24 25 26 25 24 23 21 20 20 20 21 26 31 31 30
15 15 16 17 18 18 17 16 16 17 18 19 20 20 20 21 22 22 22 23 24 24 24 24 25 25 25 24 24 25 26 26 26 25 24 23 23 23 23 23 25 26 27
5 6 7 8 10 10 11 13 15 17 19 20 21 21 21 21 22 23 23 24 24 24 23 24 24 23 24 24 25 26 26 27 27 28 27 26 26 26 26 26 27 26 26
3 1 2 4 7 9 12 15 17 19 20 22 22 22 22 23 23 23 22 21 20 20 20 21 21 21 22 23 24 25 25 26 26 27 28 28 26 25 26 27 28 29 29
3 3 5 7 10 13 15 16 17 18 20 21 22 22 22 22 21 19 18 17 16 17 18 19 21 23 25 25 25 26 25 26 26 26 27 27 26 25 25 25 26 28 28
4 6 8 11 13 13 14 15 16 18 20 21 21 21 20 20 18 17 16 15 15 17 19 21 24 26 28 29 29 28 27 26 26 26 25 25 24 24 23 23 24 24 24
6 8 10 11 12 13 13 15 17 18 20 20 20 20 19 19 17 17 16 15 16 19 22 25 28 30 31 31 32 31 29 27 26 25 25 24 23 22 22 21 21 21 22
8 9 10 10 11 12 13 15 16 17 18 20 21 20 18 17 15 14 14 14 16 19 22 24 26 27 28 28 29 29 29 27 25 23 23 22 21 21 21 20 19 18 18
10 11 11 10 11 12 13 15 16 18 19 21 22 21 18 15 13 12 12 14 17 19 20 22 22 24 24 23 22 24 25 24 21 20 19 20 20 20 20 21 20 20 19
11 11 10 10 11 13 14 16 18 20 21 22 22 20 17 14 12 11 13 14 16 17 18 19 19 18 15 11 12 17 20 21 19 18 18 18 19 19 21 22 22 22 21
Wind_Direction
271 272 276 280 278 276 279 288 294 298 299 300 302 302 301 301 298 298 301 302 302 301 299 298 301 302 300 282 261 249 249 248 245 244 246 251 255 261 249 241 246 244 241
268 271 277 278 276 275 280 290 297 299 301 302 303 304 304 302 298 298 301 300 299 298 296 294 293 293 293 280 255 241 241 241 241 244 245 245 247 256 248 242 246 246 240
267 271 277 276 274 276 283 290 296 300 303 304 305 306 306 304 302 300 298 297 295 294 294 292 289 287 285 273 254 237 235 235 237 238 238 236 241 247 246 243 245 245 240
258 266 271 272 273 276 281 289 296 299 301 304 305 305 306 305 304 301 298 296 294 293 291 289 286 283 276 265 256 243 236 235 233 234 235 232 233 236 239 240 243 243 240
253 260 262 266 269 272 278 285 291 296 301 305 306 306 305 304 303 301 298 295 292 289 287 284 281 278 268 258 254 245 239 238 236 234 235 231 229 229 233 237 239 240 239
249 253 256 262 264 268 275 285 293 300 305 306 307 307 304 302 301 300 298 295 292 289 283 277 274 271 263 256 252 242 243 244 240 236 236 233 232 228 229 234 234 232 232
240 246 250 254 259 266 278 289 296 303 307 307 308 307 305 302 300 299 297 296 296 291 282 275 270 263 258 255 254 250 252 251 246 245 242 239 236 233 230 232 233 231 231
240 246 250 255 260 271 283 291 298 304 307 306 307 306 304 303 300 299 294 292 290 287 282 278 271 258 251 252 255 255 256 254 252 254 250 242 242 239 235 233 232 231 231
258 254 253 256 269 280 286 292 298 303 303 304 304 301 303 305 304 299 293 287 282 281 283 283 278 265 253 252 257 260 259 255 257 258 252 243 238 241 239 234 231 232 234
254 246 245 266 278 283 288 292 298 300 301 303 305 300 300 305 305 300 293 287 282 280 281 279 280 273 262 260 263 264 261 258 262 263 255 245 239 239 239 235 231 232 234
248 254 265 273 277 284 290 294 297 297 299 301 303 304 304 308 307 301 294 287 281 279 278 277 277 275 270 269 271 268 266 268 269 269 260 248 242 240 237 236 233 233 236
246 255 264 272 279 288 291 291 294 299 302 305 304 305 306 307 304 298 295 289 281 277 274 274 273 273 273 273 273 269 270 275 272 273 269 253 244 240 236 236 235 232 232
249 257 264 273 283 290 292 290 292 299 307 309 309 308 304 302 297 291 295 295 287 278 271 271 274 275 275 274 271 270 270 274 274 273 276 266 246 236 231 232 233 233 232
264 266 267 277 286 290 290 288 291 298 304 306 307 308 305 298 290 287 296 297 290 281 272 269 271 274 276 275 271 268 270 273 275 275 274 273 249 233 227 226 230 234 235
264 268 273 278 283 286 286 287 292 298 301 303 306 309 306 296 284 283 293 295 290 283 275 271 269 269 270 271 271 269 270 272 274 278 274 271 252 232 226 226 229 232 234
262 266 267 269 272 279 286 290 292 294 298 302 305 307 304 296 287 285 289 289 287 284 279 274 271 269 267 268 268 267 265 265 267 269 269 260 252 242 234 229 229 232 237
260 259 257 259 265 278 289 292 291 293 296 300 302 303 302 298 292 288 288 286 286 286 283 277 273 271 269 269 269 268 264 261 260 260 260 257 253 252 248 238 235 237 243
249 250 254 261 272 285 293 294 294 296 298 301 304 306 303 299 295 291 288 286 285 284 282 278 274 273 271 270 268 266 263 260 256 254 252 252 253 254 253 249 247 249 250
236 255 268 278 289 297 302 302 303 303 302 303 304 304 302 297 293 291 290 287 284 280 276 274 275 274 271 268 266 263 260 258 255 254 251 249 249 251 251 250 250 251 252
96 35 332 315 311 310 311 312 313 310 307 305 304 304 303 300 298 295 292 289 284 279 275 274 274 274 271 268 265 263 260 257 255 254 253 252 252 252 251 250 249 250 251
46 355 327 318 315 312 312 313 314 312 309 307 307 307 306 305 302 297 293 288 284 280 278 276 276 276 273 269 264 261 259 256 253 251 249 249 251 250 248 248 248 248 248
347 327 318 314 311 310 311 314 319 320 318 317 315 312 309 307 303 299 294 288 285 284 284 284 283 281 278 272 265 260 256 252 249 246 244 243 243 244 246 246 246 248 251
336 325 317 311 311 313 316 320 323 325 326 326 323 316 311 309 306 303 300 296 294 294 294 292 289 286 282 274 264 255 250 246 243 241 240 237 234 236 241 242 242 247 254
331 322 314 310 313 317 318 320 323 326 328 331 332 328 320 315 313 311 309 306 306 306 303 302 296 291 286 276 262 248 241 238 237 236 234 230 228 230 233 235 238 245 254
325 319 314 314 317 318 318 320 322 323 324 328 332 331 325 320 317 319 319 317 316 317 317 316 310 303 293 277 257 237 228 225 223 224 225 225 225 229 235 239 242 247 253
329 325 322 322 323 324 327 329 327 324 323 324 326 326 323 317 312 316 322 325 327 330 333 334 332 325 314 282 233 214 209 208 209 212 217 222 229 236 242 245 247 248 252
Height
5853 5854 5855 5855 5855 5855 5854 5854 5853 5852 5851 5850 5849 5848 5847 5847 5847 5845 5844 5843 5843 5842 5842 5840 5838 5837 5837 5837 5837 5838 5839 5840 5840 5841 5842 5844 5845 5846 5847 5849 5850 5852 5854
5847 5849 5850 5851 5851 5850 5849 5849 5848 5847 5846 5845 5844 5844 5842 5842 5841 5839 5838 5838 5837 5837 5836 5835 5833 5833 5833 5832 5833 5833 5834 5836 5837 5838 5839 5841 5843 5843 5845 5846 5847 5849 5850
5840 5843 5845 5845 5846 5845 5844 5843 5843 5842 5841 5840 5839 5838 5837 5836 5835 5834 5832 5831 5830 5830 5829 5828 5827 5827 5828 5828 5828 5828 5829 5831 5833 5835 5836 5838 5840 5841 5842 5843 5845 5846 5847
5834 5836 5839 5839 5839 5839 5839 5839 5838 5837 5837 5836 5835 5834 5832 5831 5829 5828 5826 5824 5823 5822 5821 5821 5820 5820 5821 5822 5823 5823 5825 5826 5828 5830 5832 5835 5837 5839 5840 5842 5843 5844 5845
5829 5831 5832 5833 5833 5833 5834 5834 5834 5833 5833 5831 5830 5828 5826 5825 5823 5821 5819 5817 5815 5814 5813 5813 5812 5812 5813 5815 5816 5817 5819 5821 5823 5824 5827 5831 5833 5835 5837 5839 5841 5843 5844
5823 5823 5825 5826 5827 5828 5829 5829 5829 5828 5828 5826 5825 5823 5821 5818 5816 5813 5812 5810 5808 5806 5806 5805 5805 5804 5806 5807 5809 5811 5813 5816 5818 5820 5822 5825 5829 5831 5834 5836 5838 5840 5842
5815 5817 5819 5820 5821 5823 5824 5825 5824 5823 5822 5820 5818 5816 5814 5811 5809 5807 5805 5802 5801 5799 5798 5798 5798 5798 5800 5801 5804 5806 5808 5810 5812 5815 5818 5820 5824 5827 5830 5833 5835 5838 5839
5808 5811 5813 5815 5816 5818 5819 5819 5818 5817 5815 5814 5812 5809 5807 5805 5803 5801 5799 5796 5795 5793 5792 5791 5791 5792 5794 5796 5798 5800 5803 5805 5807 5811 5812 5814 5817 5822 5825 5829 5832 5834 5836
5803 5806 5808 5810 5812 5813 5814 5813 5812 5811 5809 5808 5806 5804 5801 5799 5797 5795 5793 5791 5789 5788 5787 5786 5786 5787 5788 5790 5792 5794 5796 5799 5801 5804 5807 5809 5811 5814 5819 5822 5826 5830 5832
5798 5800 5801 5805 5807 5808 5807 5806 5806 5805 5804 5802 5801 5798 5796 5794 5792 5789 5787 5785 5784 5783 5782 5782 5783 5783 5785 5786 5787 5788 5790 5792 5795 5797 5799 5802 5805 5807 5811 5816 5819 5823 5827
5795 5797 5797 5800 5802 5802 5801 5800 5800 5800 5799 5798 5795 5792 5790 5788 5786 5784 5782 5780 5779 5779 5779 5779 5779 5780 5781 5782 5783 5784 5785 5787 5788 5789 5790 5793 5798 5800 5803 5808 5812 5817 5821
5790 5792 5794 5795 5796 5796 5796 5796 5795 5794 5793 5792 5789 5787 5784 5782 5781 5780 5777 5775 5774 5775 5775 5775 5776 5776 5777 5778 5779 5779 5781 5782 5783 5783 5783 5784 5788 5791 5794 5799 5804 5809 5813
5786 5788 5790 5791 5791 5791 5791 5790 5790 5789 5788 5785 5782 5780 5778 5776 5775 5775 5773 5771 5770 5770 5771 5771 5771 5772 5772 5773 5774 5775 5776 5777 5777 5777 5776 5775 5778 5782 5786 5791 5797 5801 5805
5782 5784 5785 5786 5786 5786 5785 5785 5784 5783 5782 5779 5775 5773 5771 5770 5769 5769 5768 5767 5766 5766 5766 5766 5766 5766 5766 5767 5767 5769 5770 5770 5771 5770 5770 5769 5769 5773 5778 5784 5789 5794 5797
5777 5778 5780 5781 5781 5781 5780 5780 5779 5777 5775 5773 5770 5767 5765 5764 5763 5763 5762 5762 5762 5761 5761 5760 5759 5759 5760 5760 5760 5761 5762 5763 5764 5764 5764 5764 5764 5767 5771 5777 5782 5786 5790
5771 5772 5773 5774 5775 5775 5775 5775 5773 5771 5769 5767 5765 5763 5761 5760 5759 5758 5757 5757 5756 5756 5755 5754 5753 5753 5753 5753 5753 5753 5755 5756 5757 5758 5759 5760 5761 5763 5766 5770 5775 5779 5783
5764 5766 5767 5768 5769 5770 5770 5768 5767 5766 5764 5763 5761 5759 5757 5755 5753 5753 5752 5751 5750 5749 5748 5747 5746 5746 5746 5746 5746 5746 5747 5749 5750 5752 5753 5755 5757 5759 5761 5764 5768 5772 5775
5760 5762 5763 5764 5765 5765 5764 5764 5763 5762 5760 5758 5756 5754 5753 5751 5749 5748 5746 5744 5743 5741 5740 5739 5739 5739 5739 5738 5739 5739 5740 5741 5743 5745 5747 5750 5752 5754 5756 5759 5762 5764 5767
5758 5759 5760 5761 5761 5762 5762 5761 5759 5758 5756 5754 5752 5750 5748 5746 5744 5741 5739 5737 5735 5734 5733 5732 5731 5731 5731 5731 5731 5731 5732 5734 5736 5738 5740 5743 5745 5748 5750 5753 5756 5758 5760
5757 5758 5758 5759 5759 5759 5758 5756 5755 5753 5751 5749 5747 5745 5742 5739 5737 5734 5732 5730 5728 5727 5726 5725 5724 5723 5723 5723 5723 5723 5725 5726 5728 5730 5732 5735 5738 5740 5742 5746 5749 5751 5753
5757 5757 5758 5757 5756 5755 5754 5752 5751 5749 5747 5745 5742 5739 5736 5733 5730 5728 5726 5724 5722 5721 5720 5719 5718 5716 5715 5715 5715 5715 5717 5718 5720 5722 5724 5727 5730 5732 5735 5738 5741 5743 5745
5756 5756 5756 5755 5753 5752 5751 5749 5747 5745 5743 5740 5737 5734 5731 5728 5725 5723 5721 5719 5717 5715 5714 5712 5710 5708 5706 5705 5706 5706 5708 5710 5712 5715 5717 5720 5723 5726 5728 5731 5734 5736 5738
5756 5755 5754 5753 5751 5749 5748 5746 5744 5742 5739 5736 5733 5730 5727 5724 5721 5718 5716 5714 5712 5709 5707 5704 5701 5698 5695 5694 5694 5696 5699 5702 5705 5708 5710 5713 5716 5719 5722 5725 5728 5730 5731
5755 5754 5752 5751 5749 5747 5745 5744 5742 5739 5737 5733 5730 5726 5723 5720 5717 5714 5712 5710 5707 5704 5700 5696 5692 5687 5684 5681 5682 5685 5689 5694 5698 5701 5704 5707 5710 5713 5717 5719 5722 5724 5725
5755 5753 5751 5749 5747 5745 5744 5741 5739 5736 5734 5730 5727 5723 5720 5717 5714 5712 5709 5706 5703 5699 5695 5689 5683 5678 5673 5670 5671 5675 5681 5687 5691 5695 5698 5702 5706 5709 5712 5714 5716 5718 5720
5754 5752 5750 5748 5745 5743 5741 5739 5736 5733 5730 5727 5724 5721 5717 5715 5712 5710 5707 5703 5700 5695 5691 5685 5679 5672 5667 5663 5665 5670 5676 5682 5686 5690 5694 5698 5701 5704 5706 5709 5711 5713 5715